Tracking 30106 objects as of 23-Jan-2025
HD Live streaming from Space Station
objects crossing your sky now

STARLINK-2333

Track STARLINK-2333 now!
10-day predictions
STARLINK-2333 is classified as:


NORAD ID: 47877
Int'l Code: 2021-021T
Perigee: 400.5 km
Apogee: 401.6 km
Inclination: 53.1 °
Period: 92.4 minutes
Semi major axis: 6772 km
RCS: Unknown
Launch date: March 14, 2021
Source: United States (US)
Launch site: AIR FORCE EASTERN TEST RANGE (AFETR)
Your satellite tracking list
Your tracking list is empty




NASA's NSSDC Master Catalog

Two Line Element Set (TLE):
1 47877U 21021T   25023.58334491  .00277126  00000-0  35361-2 0  9993
2 47877  53.0526 293.0249 0000779 131.4536 133.3226 15.57831617  5707
Source of the keplerian elements: AFSPC